This is the latest recevied weather packets stored in our database for station/object SP5MRF. If no packets are shown the sender has not sent any weather packets the latest 10 day(s).
| Time | Temp. | Humidity | Pressure | Rain* | Wind** | Luminosity | Snow |
|---|---|---|---|---|---|---|---|
| 1788134934 | 15° C | 73% | 1010 hPa | 0 mm | - | - | - |
| 1788134454 | 15° C | 72% | 1009.9 hPa | 0 mm | - | - | - |
| 1788133974 | 15.56° C | 71% | 1009.9 hPa | 0 mm | - | - | - |
| 1788133496 | 15.56° C | 70% | 1010.1 hPa | 0 mm | - | - | - |
| 1788133014 | 15.56° C | 70% | 1010.1 hPa | 0 mm | - | - | - |
| 1788132534 | 15.56° C | 69% | 1010.3 hPa | 0 mm | - | - | - |
| 1788132054 | 16.11° C | 69% | 1010.2 hPa | 0 mm | - | - | - |
| 1788131574 | 16.11° C | 68% | 1010.1 hPa | 0 mm | - | - | - |
| 1788130614 | 16.67° C | 68% | 1010.1 hPa | 0 mm | - | - | - |
| 1788130135 | 17.22° C | 67% | 1010.1 hPa | 0 mm | - | - | - |
| 1788129654 | 17.78° C | 67% | 1010.2 hPa | 0 mm | - | - | - |
| 1788129174 | 17.78° C | 66% | 1010 hPa | 0 mm | - | - | - |
| 1788128695 | 18.33° C | 66% | 1010.1 hPa | 0 mm | - | - | - |
| 1788128214 | 18.33° C | 66% | 1010 hPa | 0 mm | - | - | - |
| 1788127734 | 18.89° C | 65% | 1010.1 hPa | 0 mm | - | - | - |
| 1788126774 | 19.44° C | 64% | 1010.1 hPa | 0 mm | - | - | - |
| 1788126296 | 19.44° C | 63% | 1010 hPa | 0 mm | - | - | - |
| 1788125814 | 20° C | 63% | 1009.8 hPa | 0 mm | - | - | - |
| 1788125335 | 20° C | 63% | 1009.8 hPa | 0 mm | - | - | - |
| 1788124854 | 20° C | 62% | 1009.6 hPa | 0 mm | - | - | - |
| 1788124374 | 20.56° C | 61% | 1009.6 hPa | 0 mm | - | - | - |
| 1788123896 | 20.56° C | 61% | 1009.4 hPa | 0 mm | - | - | - |
| 1788122934 | 20.56° C | 60% | 1009.5 hPa | 0 mm | - | - | - |
| 1788122454 | 21.11° C | 59% | 1009.5 hPa | 0 mm | - | - | - |
| 1788121974 | 21.11° C | 59% | 1009.5 hPa | 0 mm | - | - | - |
* Rain latest hour (hover to see other rain measurements)
** Current wind speed in m/s (hover to see current wind gust speed)